Simultaneous Nadir Overpasses (SNOs) Predictions

Prediction of SNOs between NOAA-19 and METOP-C Satellite Orbit:

Table of predicted SNOs for the next 14.0 days since TLE Epoch: 3/8/2025
Index Date (NOAA-19) Time (NOAA-19) Lat,Lon (NOAA-19) SZA (NOAA-19 ) Date (METOP-C) Time (METOP-C) Lat,Lon (METOP-C) SZA (METOP-C ) Distance(km) Time Diff (sec)
1 03/18/2025 02:36:57 79.13,-129.05 90.53 03/18/2025 02:37:55 79.14,-129.11 90.57 1.40 58
2 03/18/2025 03:27:51 -79.07, 38.69 89.40 03/18/2025 03:28:34 -79.07, 38.68 89.37 0.29 43
3 03/18/2025 04:18:49 78.97,-153.32 90.73 03/18/2025 04:19:12 78.97,-153.30 90.75 0.45 23
4 03/18/2025 05:09:42 -78.87, 14.66 89.15 03/18/2025 05:09:50 -78.87, 14.71 89.14 1.51 8
5 03/18/2025 06:00:41 78.81,-177.62 90.93 03/18/2025 06:00:29 78.80,-177.52 90.94 2.33 12
6 03/18/2025 06:51:31 -78.60, -8.94 88.81 03/18/2025 06:51:05 -78.62, -9.07 88.86 3.26 26
7 03/18/2025 07:42:27 78.42, 159.46 91.41 03/18/2025 07:41:41 78.43, 159.37 91.36 2.27 46



Historial Predications of SNOs between NOAA-19 and METOP-C
